Overview Statistics Trail Chart Weather Telemetry Raw packets
 

This is the latest recevied weather packets stored in our database for station/object OK1FET-14. If no packets are shown the sender has not sent any weather packets the latest 10 day(s).

<< 341 342 343 344 345 346 347 >>
Time Temp. Humidity Pressure Rain* Wind** Luminosity Snow
1787917269 24.44° C 56% 1014.2 hPa - - - -
1787917269 24.44° C 56% 1014.2 hPa - - - -
1787916987 25.56° C 54% 1014.3 hPa - - - -
1787916987 25.56° C 54% 1014.3 hPa - - - -
1787916987 25.56° C 54% 1014.3 hPa - - - -
1787916706 25.56° C 53% 1014 hPa - - - -
1787916706 25.56° C 53% 1014 hPa - - - -
1787916424 25.56° C 54% 1013.8 hPa - - - -
1787916424 25.56° C 54% 1013.8 hPa - - - -
1787916143 25.56° C 53% 1013.6 hPa - - - -
1787916143 25.56° C 53% 1013.6 hPa - - - -
1787915862 25.56° C 52% 1013.6 hPa - - - -
1787915861 25.56° C 52% 1013.6 hPa - - - -
1787915861 25.56° C 52% 1013.6 hPa - - - -
1787915580 26.11° C 51% 1013.7 hPa - - - -
1787915580 26.11° C 51% 1013.7 hPa - - - -
1787915298 26.11° C 51% 1013.6 hPa - - - -
1787915298 26.11° C 51% 1013.6 hPa - - - -
1787915017 26.67° C 49% 1013.7 hPa - - - -
1787915017 26.67° C 49% 1013.7 hPa - - - -
1787914735 27.22° C 48% 1013.9 hPa - - - -
1787914735 27.22° C 48% 1013.9 hPa - - - -
1787914454 28.33° C 46% 1013.8 hPa - - - -
1787914454 28.33° C 46% 1013.8 hPa - - - -
1787914454 28.33° C 46% 1013.8 hPa - - - -

* Rain since midnight (hover to see other rain measurements)
** Current wind speed in m/s (hover to see current wind gust speed)